Regional Weather Roundup
Issued by NWS Upton, NY

Current Version | Previous Version | Text Only | Print | Product List | Glossary On
Versions: 1 2 3 4 5 6 7 8 9 10 11 12 13 14 15 16 17 18 19 20 21 22 23 24 25 26 27 28 29
000 ASUS41 KOKX 011105 RWROKX REGIONAL WEATHER ROUNDUP NATIONAL WEATHER SERVICE NEW YORK NY 700 AM EDT SAT NOV 01 2014 NOTE: "FAIR" INDICATES FEW OR NO CLOUDS BELOW 12,000 FEET WITH NO SIGNIFICANT WEATHER AND/OR OBSTRUCTIONS TO VISIBILITY. NYZ071-072-176-178-NJZ106-104-011200- NEW YORK CITY METRO AREA CITY SKY/WX TMP DP RH WIND PRES REMARKS CENTRAL PARK LGT RAIN 45 39 79 NE9G16 29.85S LAGUARDIA APRT LGT RAIN 47 38 71 N16G22 29.82S KENNEDY INTL LGT RAIN 47 39 74 N20G26 29.81S NEWARK/LIBERTY LGT RAIN 45 41 86 N18 29.83S BRNX BOT. GARD N/A 45 37 76 NW3 29.84S TETERBORO LGT RAIN 46 38 73 N7 29.83R $$ NYZ177-179-078>081-011200- LONG ISLAND NEW YORK CITY SKY/WX TMP DP RH WIND PRES REMARKS FARMINGDALE LGT RAIN 47 40 76 NE20 29.79F ISLIP LGT RAIN 47 39 74 N18G26 29.77F SHIRLEY LGT RAIN 48 39 71 N10G23 29.80F WESTHAMPTON LGT RAIN 48 38 68 N20G30 29.80F MONTAUK POINT N/A 50 41 71 NE14G28 29.80F $$ NYZ052-065-067-011200- HUDSON VALLEY CITY SKY/WX TMP DP RH WIND PRES REMARKS WHITE PLAINS LGT RAIN 45 34 65 N15G29 29.82F NEWBURGH NOT AVBL MONTGOMERY CLOUDY 44 37 76 NE10 29.87F POUGHKEEPSIE CLOUDY 44 39 82 N6 29.88F ALBANY CLOUDY 40 31 70 N10 29.97R WCI 33 $$ NJZ001-105-106-008-010-013-015-019>022-104-011200- NEW JERSEY CITY SKY/WX TMP DP RH WIND PRES REMARKS NEWARK/LIBERTY LGT RAIN 45 41 86 N18 29.83S TETERBORO LGT RAIN 46 38 73 N7 29.83R CALDWELL LGT RAIN 45 36 70 NE8G18 29.85R MORRISTOWN LGT RAIN 45 41 87 NE12G18 29.85R SOMERVILLE LGT RAIN 44 39 82 N8G17 29.82R SUSSEX CLOUDY 46 39 76 NE8 29.87R ANDOVER N/A 42 40 92 NE9G17 29.87R TRENTON RAIN 44 40 85 N14G21 29.80R FOG MILLVILLE LGT RAIN 47 44 90 N15G25 29.71S ATLANTIC CITY HVY RAIN 47 46 97 N18G24 29.72R FOG WRIGHTSTOWN RAIN 44 43 94 N16G24 29.77R TOMS RIVER CLOUDY 46 45 93 N7G24 29.77R BELMAR CLOUDY 45 37 76 N14G23 29.77S $$ PAZ047>061-062-071-011200- EASTERN PENNSYLVANIA CITY SKY/WX TMP DP RH WIND PRES REMARKS PHILADELPHIA HVY RAIN 46 42 86 N17G29 29.80R FOG ALLENTOWN LGT RAIN 45 38 76 NE12G18 29.86R SCRANTON CLOUDY 46 37 71 NE9 29.86R $$ CTZ002-004>006-009-010-012-RIZ004-006-007-MAZ004-011-015-011200- SOUTHERN NEW ENGLAND IN CT CITY SKY/WX TMP DP RH WIND PRES REMARKS BRADLEY INTL CLOUDY 45 32 60 N12 29.90R HARTFORD CLOUDY 45 32 60 N9 29.89R DANBURY CLOUDY 45 32 60 N13G18 29.87S WTRBRY/OXFORD NOT AVBL BRIDGEPORT LGT RAIN 47 35 63 NE24G31 29.82F MERIDEN CLOUDY 45 32 60 N10G20 29.87S NEW HAVEN LGT RAIN 47 34 60 N20G29 29.83F CHESTER FAIR 45 32 61 NE9G20 29.85F GROTON CLOUDY 46 36 68 N16G23 29.81F WILLIMANTIC CLOUDY 45 33 63 NE12G20 29.88R IN RI CITY SKY/WX TMP DP RH WIND PRES REMARKS PROVIDENCE CLOUDY 45 35 68 N13 29.88R BLOCK ISLAND CLOUDY 48 39 71 NE17G30 29.80F WESTERLY CLOUDY 47 37 68 N13G21 29.83F IN MA CITY SKY/WX TMP DP RH WIND PRES REMARKS BOSTON NOT AVBL WORCESTER CLOUDY 39 32 76 NE9G20 29.89R WCI 33 WESTFIELD CLOUDY 44 32 62 N12 29.92R PROVINCETOWN CLOUDY 52 -2 11 N18G28 29.85R NANTUCKET LGT RAIN 52 49 89 N16G25 29.80R FOG $$ ANZ330-335-338-340-345-350-353-355-011200- COASTAL MARINE OBSERVATIONS STATION/POSITION TIME SKY/WX TEMP WIND PRES VSBY WAVE AIR SEA DIR/SP/G HT/PER (UTC) (F) (DEG/KT/KT) (MB) (MI) (FT/S) NY HARB ENTRANCE 1100 51 61 20/ 25/ 35 1007.6 8/ 8 4S FIRE IS 1100 62 N/A 8/ 8 20S FIRE ISLAND 1100 54 62 40/ 29/ 35 1005.1 9/ 8 23SW MTP 1100 N/A 9/ 7 HUDSON CANYON 1100 58 64 50/ 29/ 37 1002.4 EXECUTION ROCKS 1100 50 59 30/ 21/ 27 N/A WESTERN LI SOUND 1100 49 40/ 19/ 23 N/A 3/ 5 CENTRAL LI SOUND 1000 50 61 30/ 23/ 27 N/A 3/ 4 EASTERN LI SOUND 1000 50 60 40/ 19/ 23 N/A ROBBINS REEF 1100 47 20/ 21/ 27 1008.3 $$ >>>>>>>>>>>>>>>>>>>>>>>>>>>> KEY <<<<<<<<<<<<<<<<<<<<<<<<<<< > < > SKY/WX - SKY CONDITION/PRESENT WEATHER < > TMP - TEMPERATURE IN FAHRENHEIT < > DP - DEWPOINT IN FAHRENHEIT < > RH - RELATIVE HUMIDITY IN PERCENT < > WIND - DIRECTION AND SPEED IN MPH < > PRES - MEAN SEA LEVEL PRESSURE IN INCHES OF HG < > WCI - WIND CHILL INDEX < > VSB - VISIBILITY IN MILES < > HX - HEAT INDEX < > TC - TEMPERATURE IN CELSIUS < > VRB - VARIABLE WIND DIRECTION < > < >>>>>>>>>>>>>>>>>>>>>>>>>>>> KEY <<<<<<<<<<<<<<<<<<<<<<<<<<<

USA.gov is the U.S. government's official web portal to all federal, state and local government web resources and services.